This is the latest recevied weather packets stored in our database for station/object SP9MUF-14. If no packets are shown the sender has not sent any weather packets the latest 10 day(s).
| Time | Temp. | Humidity | Pressure | Rain* | Wind** | Luminosity | Snow |
|---|---|---|---|---|---|---|---|
| 1787992425 | 16.67° C | 92% | 1015.4 hPa | 0 mm | - | 53 W/m² | - |
| 1787992123 | 16.67° C | 91% | 1015.3 hPa | 0 mm | - | 66 W/m² | - |
| 1787991519 | 16.67° C | 90% | 1015.1 hPa | 0 mm | - | 31 W/m² | - |
| 1787991217 | 17.78° C | 90% | 1015 hPa | 0 mm | - | 39 W/m² | - |
| 1787990915 | 17.78° C | 89% | 1014.9 hPa | 0 mm | - | 68 W/m² | - |
| 1787990612 | 17.78° C | 89% | 1014.7 hPa | 0 mm | - | 117 W/m² | - |
| 1787990310 | 17.78° C | 88% | 1014.7 hPa | 0 mm | - | 172 W/m² | - |
| 1787990010 | 17.78° C | 88% | 1014.5 hPa | 0 mm | - | 165 W/m² | - |
| 1787989706 | 17.78° C | 88% | 1014.4 hPa | 0 mm | - | 169 W/m² | - |
| 1787989404 | 17.78° C | 88% | 1014.3 hPa | 0 mm | - | 160 W/m² | - |
| 1787989102 | 17.78° C | 89% | 1014.3 hPa | 0 mm | - | 174 W/m² | - |
| 1787988800 | 17.78° C | 89% | 1014.2 hPa | 0 mm | - | 166 W/m² | - |
| 1787988498 | 17.78° C | 89% | 1014 hPa | 0 mm | - | 143 W/m² | - |
| 1787988195 | 17.78° C | 91% | 1014 hPa | 0 mm | - | 141 W/m² | - |
| 1787987893 | 17.78° C | 91% | 1014.1 hPa | 0 mm | - | 138 W/m² | - |
| 1787987591 | 17.78° C | 92% | 1014.2 hPa | 0 mm | - | 140 W/m² | - |
| 1787986987 | 16.67° C | 93% | 1014.3 hPa | 0 mm | - | 77 W/m² | - |
| 1787986685 | 16.67° C | 94% | 1014.1 hPa | 0 mm | - | 68 W/m² | - |
| 1787986383 | 16.67° C | 94% | 1014 hPa | 0 mm | - | 60 W/m² | - |
| 1787986081 | 16.67° C | 95% | 1014 hPa | 0 mm | - | 59 W/m² | - |
| 1787985778 | 16.67° C | 96% | 1014.1 hPa | 0 mm | - | 58 W/m² | - |
| 1787985174 | 16.67° C | 96% | 1014.2 hPa | 0 mm | - | 64 W/m² | - |
| 1787984872 | 16.67° C | 96% | 1014.1 hPa | 0 mm | - | 62 W/m² | - |
| 1787984570 | 16.67° C | 96% | 1013.9 hPa | 0 mm | - | 57 W/m² | - |
| 1787984268 | 16.67° C | 96% | 1013.8 hPa | 0 mm | - | 48 W/m² | - |
* Rain latest hour (hover to see other rain measurements)
** Current wind speed in m/s (hover to see current wind gust speed)